Vorticity
5 4 5 4 4 5 5 4 4 4 4 4 4 4 3 4 2 3 3 4 7 5 4 7 10 13 6 9 11 1 -1 1 26 -1 -21 46 11 18 1 5 2 23 13 -15 2
8 7 5 3 4 4 5 5 4 4 4 5 5 5 4 5 3 1 1 0 4 4 7 8 10 4 11 6 12 1 5 10 -2 -17 -14 24 9 9 4 13 -6 -0 -0 -1 13
5 6 9 6 4 4 4 5 5 5 4 5 5 4 5 7 5 5 2 1 4 10 9 10 15 3 2 -3 5 -0 6 -3 11 7 -16 17 3 26 9 12 27 -0 -0 7 3
-12 16 7 7 8 7 4 3 5 5 4 4 5 6 4 4 8 9 11 0 4 7 6 12 8 13 6 9 6 12 13 2 -7 2 3 2 27 10 1 -5 9 -21 49 13 15
-2 12 -2 14 8 8 7 6 4 5 5 5 5 5 6 4 6 -5 10 13 7 3 5 11 10 8 6 6 -5 3 0 1 1 19 2 8 1 16 1 3 22 -7 20 16 3
5 -9 20 0 12 3 7 9 7 5 5 4 5 4 6 5 -7 3 4 -3 7 -4 2 6 4 4 1 2 3 1 5 7 6 9 4 -5 8 3 11 3 6 0 -10 -7 7
5 6 -16 4 -12 -3 10 7 6 7 6 5 4 6 4 13 -10 21 6 -4 -1 -7 2 3 9 2 4 5 34 22 21 4 4 -3 18 -4 1 6 11 26 13 22 1 11 6
14 6 6 -11 9 1 11 3 10 6 9 7 6 5 4 5 3 2 -2 16 12 12 5 6 11 0 -1 1 -15 -14 8 19 19 -4 -3 3 18 1 2 -0 12 1 18 -0 7
14 15 10 4 3 2 5 11 -3 32 8 10 6 4 13 5 5 -1 6 1 1 8 6 5 7 -2 3 8 6 6 -5 -6 -1 18 21 10 1 -8 22 10 18 15 6 14 14
11 9 16 18 8 3 -8 -2 4 6 29 5 7 19 5 3 41 12 7 3 6 1 9 7 9 6 4 1 -15 6 9 10 1 19 37 12 32 20 2 22 37 27 -1 14 4
18 15 8 17 15 14 5 3 -4 17 36 -23 17 4 -73 5 22 31 2 18 15 5 3 -3 -3 -6 -5 -1 -2 8 -21 -19 -5 -3 30 -8 36 31 14 0 8 5 1 14 -4
15 20 17 12 16 14 17 6 -0 -14 36 19 -2 12 16 -42 9 12 17 0 16 -1 8 12 6 3 5 7 13 6 8 5 2 7 -10 12 20 -1 15 -12 13 4 9 8 3
27 8 8 21 36 15 12 14 -1 -9 5 11 13 23 16 4 -21 -16 17 18 11 19 8 -2 -6 7 3 3 6 9 4 1 -1 3 5 -8 13 13 6 24 0 12 14 9 5
18 22 10 -0 10 21 15 12 21 18 12 67 18 18 -6 13 15 2 5 -4 24 6 19 16 29 -21 15 3 16 -1 6 2 7 7 5 -2 3 14 7 5 15 -7 6 9 8
14 15 23 10 8 13 13 16 62 26 6 37 39 17 33 5 -114 96 6 -1 -4 -4 4 -18 37 3 6 -2 5 8 24 1 10 4 14 12 -2 26 7 12 6 32 25 -2 17
11 14 15 27 19 6 9 -16 9 2 26 17 27 27 12 21 12 -71 98 -3 18 3 -1 11 -28 20 28 13 -1 -4 4 24 -1 -3 47 21 -7 31 4 -10 4 -11 32 19 2
8 16 11 11 19 11 -3 19 -3 4 20 -38 16 17 29 7 16 51 -9 31 -32 9 12 8 6 -2 -5 12 33 -20 46 13 35 27 -13 56 25 -45 20 55 16 -31 29 24 10
7 12 14 7 22 11 8 33 -12 53 1 26 8 22 20 18 21 20 -27 23 11 -3 17 -16 65 5 23 -7 5 27 -7 -55 -1 7 20 27 2 1 9 0 -19 23 26 18 14
31 15 12 8 11 18 8 -9 17 -42 41 2 -24 14 4 25 -21 25 25 -10 25 -12 -38 40 7 22 38 -15 -8 19 -3 -3 -15 -38 16 16 70 40 24 20 39 20 28 14 7
21 15 5 17 18 14 15 1 -20 63 -79 54 -18 4 18 -1 -8 34 -1 45 -7 32 -29 -34 18 60 -11 56 9 -2 -4 26 18 16 14 17 8 -37 24 4 20 19 16 13 13
17 11 5 13 14 18 -12 -13 24 -3 16 -39 45 -36 11 22 10 35 14 2 33 14 20 -23 -35 15 24 -3 21 18 27 24 14 -60 8 18 25 55 23 6 4 14 12 21 14
17 13 7 21 28 14 9 7 7 16 17 -7 13 61 -12 -0 11 -26 -25 5 25 35 15 2 43 -22 -7 -7 47 29 -3 5 -21 44 28 -55 9 21 21 11 26 7 9 18 8
11 13 31 18 27 16 5 0 20 3 38 18 -43 32 -22 56 8 23 16 -8 -43 48 6 -15 32 48 64 30 -9 8 37 5 5 3 -9 -29 -20 68 6 1 31 8 4 13 10
26 20 -12 27 15 11 -0 -0 3 12 4 -17 21 -55 -59 23 2 88 -7 -14 13 -13 51 37 -3 -24 -25 44 31 -0 -18 62 -12 -11 7 -14 14 5 28 23 10 10 2 7 6
33 40 -9 29 18 6 33 30 12 -3 14 19 24 -1 -18 47 4 11 43 27 11 31 55 15 -15 13 3 -1 8 37 -15 54 2 1 -21 21 -9 -4 6 6 12 11 17 9 3
10 -49 42 28 17 19 17 -12 10 10 -42 29 -3 -9 -10 -1 -30 15 32 28 18 1 35 -30 27 8 22 -2 20 24 45 25 18 -1 13 -43 13 23 3 -11 11 10 8 0 2
61 29 -6 12 49 -0 -3 1 -18 42 31 12 16 6 31 -17 -18 35 -38 38 -3 6 26 8 -26 27 35 -6 7 27 7 5 -21 1 2 2 -7 4 21 10 30 12 9 11 10
Height
3094 3096 3098 3100 3102 3105 3107 3110 3112 3114 3117 3118 3120 3122 3122 3122 3126 3127 3129 3129 3132 3130 3130 3131 3131 3133 3133 3133 3135 3138 3139 3137 3134 3134 3136 3133 3131 3131 3132 3135 3135 3135 3138 3142 3144
3086 3088 3091 3093 3094 3097 3099 3102 3105 3107 3110 3113 3114 3116 3118 3117 3119 3123 3126 3125 3127 3127 3127 3128 3129 3130 3131 3131 3133 3134 3134 3133 3132 3135 3136 3138 3134 3131 3132 3133 3136 3133 3137 3141 3142
3077 3079 3082 3085 3088 3089 3092 3094 3098 3100 3102 3106 3109 3110 3112 3111 3114 3117 3120 3121 3123 3123 3123 3125 3127 3126 3128 3130 3131 3132 3130 3131 3129 3133 3135 3134 3132 3132 3131 3131 3134 3134 3133 3137 3139
3066 3069 3073 3075 3079 3082 3085 3087 3090 3093 3095 3097 3101 3103 3106 3105 3109 3108 3113 3116 3118 3120 3121 3121 3123 3123 3124 3125 3128 3129 3128 3129 3127 3130 3131 3129 3128 3127 3129 3132 3132 3136 3131 3130 3133
3055 3059 3062 3066 3069 3073 3077 3080 3082 3085 3088 3090 3092 3094 3097 3095 3096 3104 3108 3111 3112 3115 3118 3118 3119 3121 3121 3123 3125 3124 3125 3126 3125 3125 3126 3126 3124 3124 3125 3128 3131 3133 3134 3132 3131
3044 3049 3051 3055 3059 3063 3068 3071 3075 3077 3080 3083 3084 3086 3086 3078 3094 3100 3102 3105 3108 3110 3112 3115 3114 3118 3118 3118 3118 3118 3118 3118 3118 3119 3119 3121 3120 3120 3121 3123 3126 3129 3133 3133 3131
3031 3036 3041 3044 3047 3052 3057 3061 3065 3069 3071 3074 3075 3076 3073 3067 3087 3090 3091 3095 3100 3104 3107 3109 3111 3112 3112 3112 3114 3114 3113 3111 3112 3112 3114 3117 3114 3113 3115 3118 3120 3123 3127 3130 3131
3017 3022 3027 3034 3037 3041 3046 3049 3054 3057 3060 3062 3065 3065 3051 3065 3079 3081 3082 3089 3095 3099 3101 3104 3104 3103 3106 3108 3108 3107 3107 3104 3104 3109 3109 3113 3107 3110 3112 3114 3114 3118 3121 3124 3125
3003 3008 3014 3021 3026 3030 3035 3037 3043 3045 3048 3051 3053 3054 3041 3053 3060 3075 3081 3084 3091 3093 3096 3097 3096 3097 3101 3102 3104 3103 3098 3101 3100 3102 3103 3105 3102 3103 3107 3108 3108 3112 3115 3115 3116
2990 2995 3000 3007 3013 3018 3025 3029 3034 3031 3034 3038 3041 3044 3033 3034 3054 3068 3075 3075 3080 3086 3088 3087 3090 3091 3094 3096 3092 3093 3096 3096 3096 3095 3098 3097 3097 3099 3102 3102 3100 3105 3108 3109 3110
2976 2981 2986 2992 2999 3006 3015 3022 3026 3024 3018 3014 3023 3024 3037 3038 3044 3052 3062 3066 3071 3073 3074 3080 3079 3073 3083 3087 3088 3092 3093 3092 3094 3091 3094 3092 3089 3093 3097 3099 3099 3101 3103 3102 3102
2962 2967 2973 2979 2984 2991 2999 3006 3012 3015 3008 3007 3014 3014 3029 3036 3034 3039 3048 3052 3056 3056 3068 3071 3056 3070 3078 3082 3084 3086 3087 3087 3086 3087 3088 3087 3086 3088 3091 3093 3096 3098 3097 3094 3094
2953 2956 2961 2967 2972 2975 2983 2993 3000 3005 2994 2990 2995 3004 3012 3031 3026 3036 3039 3043 3046 3049 3052 3050 3052 3066 3070 3072 3076 3078 3080 3082 3083 3082 3081 3083 3080 3083 3085 3088 3091 3093 3095 3088 3086
2942 2947 2952 2959 2961 2962 2969 2982 2989 2996 2983 2976 2979 2983 2998 3015 3005 3027 3032 3039 3038 3036 3047 3043 3052 3057 3061 3059 3068 3066 3075 3076 3079 3081 3076 3079 3070 3073 3078 3079 3082 3085 3088 3083 3081
2934 2938 2941 2948 2950 2953 2964 2970 2973 2983 2971 2966 2965 2974 2987 2987 2994 3005 3021 3027 3024 3031 3040 3015 3030 3042 3044 3045 3059 3053 3070 3072 3074 3073 3073 3068 3069 3063 3070 3070 3074 3075 3080 3074 3074
2924 2928 2932 2935 2938 2943 2952 2963 2966 2973 2957 2960 2961 2962 2970 2971 2981 2999 3005 3016 3024 3028 3023 3016 3029 3030 3032 3046 3051 3058 3065 3067 3068 3066 3056 3059 3065 3050 3057 3062 3065 3068 3070 3067 3068
2915 2917 2921 2926 2926 2936 2948 2954 2957 2940 2950 2952 2953 2956 2956 2960 2971 2986 2996 3003 3005 3017 3007 3018 3013 3023 3032 3037 3044 3051 3058 3060 3060 3053 3038 3052 3054 3041 3046 3052 3058 3061 3060 3058 3060
2902 2905 2909 2914 2920 2928 2937 2940 2935 2927 2932 2937 2949 2950 2950 2955 2963 2970 2985 2988 2993 2996 3000 3006 3007 3003 3015 3020 3030 3034 3044 3040 3045 3044 3037 3046 3026 3030 3041 3046 3050 3054 3051 3052 3053
2889 2892 2895 2901 2910 2918 2924 2916 2912 2919 2925 2932 2938 2940 2944 2949 2956 2961 2970 2964 2973 2979 2988 2990 2986 2994 3003 3012 3024 3025 3025 3037 3036 3035 3033 3026 3023 3027 3031 3034 3036 3042 3041 3042 3046
2875 2880 2881 2891 2899 2905 2907 2900 2905 2911 2922 2926 2926 2927 2932 2936 2945 2947 2957 2951 2961 2967 2980 2980 2984 2987 2996 3007 3013 3014 3026 3027 3026 3033 3031 3017 3018 3020 3025 3027 3029 3031 3033 3036 3040
2865 2867 2864 2879 2888 2885 2880 2889 2896 2905 2912 2914 2916 2922 2923 2925 2930 2935 2937 2942 2951 2956 2969 2978 2980 2986 2988 2986 2995 3007 3009 3011 3017 3021 3019 3018 3011 3013 3018 3021 3023 3026 3030 3034 3037
2853 2853 2851 2863 2869 2864 2868 2873 2883 2892 2904 2903 2902 2906 2913 2917 2918 2923 2927 2931 2935 2943 2956 2956 2969 2978 2975 2982 2990 2996 2994 2998 3001 3005 3011 3012 3006 3009 3011 3015 3017 3018 3024 3028 3031
2833 2838 2841 2844 2844 2848 2856 2864 2873 2880 2887 2895 2891 2892 2900 2904 2911 2912 2913 2925 2933 2934 2943 2956 2959 2968 2975 2980 2977 2978 2982 2990 2993 3001 2996 3006 2994 3004 3009 3011 3010 3014 3019 3024 3027
2819 2819 2828 2817 2828 2834 2844 2850 2861 2866 2877 2885 2884 2886 2885 2891 2897 2899 2909 2915 2924 2928 2931 2946 2947 2943 2940 2941 2960 2969 2972 2978 2986 2990 2987 2988 2995 2998 3004 3007 3008 3011 3016 3018 3021
2789 2786 2794 2796 2805 2818 2832 2841 2846 2857 2862 2872 2872 2873 2880 2883 2885 2888 2901 2910 2913 2918 2923 2930 2933 2930 2936 2942 2948 2950 2961 2963 2968 2967 2982 2979 2986 2994 2999 3001 3003 3006 3007 3010 3015
2762 2768 2783 2792 2803 2811 2816 2825 2834 2841 2852 2857 2860 2864 2870 2868 2873 2889 2888 2892 2892 2905 2908 2917 2918 2925 2930 2940 2941 2944 2950 2954 2959 2963 2971 2975 2977 2986 2992 2996 3000 2999 2999 3002 3009
2736 2756 2776 2782 2793 2805 2795 2811 2820 2843 2848 2850 2859 2859 2860 2866 2877 2877 2883 2882 2884 2888 2894 2907 2911 2914 2924 2931 2935 2937 2929 2938 2947 2953 2955 2959 2957 2977 2982 2984 2992 2991 2992 2994 3000